#timestamp,LO_Frequency,Hit,StdDev 
1572649215.7,286046998.5,N
1572649235.6,286046997.0,N
1572649255.4,286046999.1,N
1572649275.2,286046998.2,N
1572649295.1,286047000.7,N
1572649296.0,286047000.7,N
1572649315.8,286046999.9,N
1572649335.7,286047000.4,N
1572649355.5,286046998.1,N
1572649375.3,286046998.6,N
1572649395.2,286047001.0,N
1572649415.0,286047001.8,N
1572649415.9,286047001.8,N
1572649435.8,286047004.1,N
1572649455.6,286047001.5,N
1572649475.4,286047002.1,N
1572649495.3,286047002.4,N
1572649515.1,286047000.3,N
1572649535.8,286047000.4,N
1572649555.7,286047000.4,N
1572649575.5,286046998.2,N
1572649595.4,286046999.4,N
1572649615.2,286046997.2,N
1572649635.0,286046995.0,Y
1572649635.9,286046995.0,P
1572649655.8,286046995.2,N
1572649675.6,286046997.5,N
1572649695.4,286046998.0,N
1572649715.3,286046995.9,N
1572649735.1,286046996.1,N
1572649755.9,286046995.3,N
1572649775.7,286046997.3,N
1572649795.5,286046997.1,N
1572649815.4,286046996.7,N
1572649835.2,286046999.5,N
1572649855.0,286046997.3,N
1572649855.9,286046997.3,N
1572649875.8,286046998.8,N
1572649895.6,286047001.2,N
1572649915.5,286047000.2,N
1572649935.3,286047001.5,N
1572649955.1,286047002.2,N
1572649975.9,286047005.2,N
1572649995.7,286047002.9,N
1572650015.5,286047003.6,N
1572650035.4,286047003.5,N
1572650055.2,286047001.4,N
1572650075.1,286047002.2,N
1572650076.0,286047002.2,N
1572650095.8,286047001.0,N
1572650115.6,286047002.7,N
1572650135.5,286047001.5,N
1572650155.3,286047002.8,N
1572650175.2,286047001.7,N
1572650195.9,286046999.9,N
1572650215.7,286047002.8,N
1572650235.6,286047002.4,N
1572650255.4,286047001.6,N
1572650275.2,286047002.5,N
1572650295.1,286047002.0,N
1572650296.0,286047002.0,N
1572650315.8,286047002.5,N
1572650335.7,286047001.9,N
1572650355.5,286047002.8,N
1572650375.3,286047002.6,N
1572650395.2,286047002.6,N
1572650415.0,286047002.6,N
1572650415.9,286047002.6,N
1572650435.8,286047000.2,N
1572650455.6,286047000.4,N
1572650475.4,286047000.7,N
1572650495.3,286047000.3,N
1572650515.1,286047002.6,N
1572650535.9,286047004.0,Y
1572650555.7,286046998.9,P
1572650575.5,286046998.1,N
1572650595.4,286046998.1,N
1572650615.2,286046998.1,N
1572650635.0,286046996.5,N
1572650635.9,286046996.5,N
1572650655.8,286046998.0,N
1572650675.6,286046997.3,N
1572650695.5,286046997.9,N
1572650715.3,286046995.2,Y
1572650735.1,286046997.2,P
1572650755.9,286046999.6,N
1572650775.7,286046996.5,P
1572650795.5,286046997.1,N
1572650815.4,286046999.2,N
1572650835.2,286046996.9,N
1572650855.1,286046997.7,N
1572650856.0,286046997.7,N
1572650875.8,286046999.4,N
1572650895.6,286046998.1,N
1572650915.5,286047000.9,N
1572650935.3,286046999.7,N
1572650955.1,286047002.2,N
1572650975.9,286046999.7,N
1572650995.7,286047000.1,N
1572651015.6,286046998.4,N
1572651035.4,286047000.8,N
1572651055.2,286046999.5,N
1572651075.1,286046996.7,N
1572651076.0,286046996.7,N
1572651095.8,286046995.3,Y
1572651115.7,286046997.8,P
1572651135.5,286046997.1,P
1572651155.3,286046996.9,P
1572651175.2,286046999.1,N
1572651195.0,286046997.0,Y
1572651195.9,286046997.0,P
1572651215.7,286047000.8,N
1572651235.6,286047004.0,N
1572651255.4,286047004.0,N
1572651275.3,286047002.5,N
1572651295.1,286046999.7,N
1572651296.0,286046999.7,N
1572651315.8,286047002.4,N
1572651335.7,286047001.6,N
1572651355.5,286046999.8,N
1572651375.3,286047000.4,N
1572651395.2,286046999.8,N
1572651415.0,286046999.8,N
1572651415.9,286046999.8,N
1572651435.8,286047002.8,N
1572651455.6,286047004.2,N
1572651475.4,286047003.4,N
1572651495.3,286047003.1,N
1572651515.1,286047006.0,N
1572651535.8,286047003.6,N
1572651555.7,286047001.9,N
1572651575.5,286047001.8,N
1572651595.4,286047003.0,N
1572651615.2,286047001.5,N
1572651635.0,286047004.3,N
1572651635.9,286047004.3,N
1572651655.8,286047004.2,N
1572651675.6,286047003.6,N
1572651695.4,286047006.0,N
1572651715.3,286047006.0,N
1572651735.1,286047006.0,N
1572651755.9,286047005.5,N
1572651775.7,286047006.0,N
1572651795.5,286047006.0,N
1572651815.4,286047003.6,N
1572651835.2,286047001.3,N
1572651855.0,286047001.8,N
1572651855.9,286047001.8,N
1572651875.8,286047001.6,N
1572651895.6,286047001.5,N
1572651915.5,286047004.4,N
1572651935.3,286047002.6,N
1572651955.1,286047002.1,N
1572651975.9,286047001.6,N
1572651995.7,286047001.9,N
1572652015.5,286047003.7,N
1572652035.4,286047001.3,N
1572652055.2,286047003.3,N
1572652075.1,286047003.0,N
1572652076.0,286047003.0,N
1572652095.8,286047003.6,N
1572652115.6,286047003.2,N
1572652135.5,286047003.9,N
1572652155.3,286047003.2,N
1572652175.1,286047002.9,N
1572652195.9,286047004.1,N
1572652215.7,286047004.1,N
1572652235.6,286047004.4,N
1572652255.4,286047004.3,N
1572652275.2,286047001.6,N
1572652295.1,286047004.3,Y
1572652296.0,286047004.3,P
1572652315.8,286047000.3,N
1572652335.7,286046999.4,N
1572652355.5,286046996.6,N
1572652375.3,286046997.6,N
1572652395.2,286046997.7,N
1572652415.9,286046995.3,N
1572652435.7,286046994.9,N
1572652455.6,286046997.4,N
1572652475.4,286046999.4,N
1572652495.2,286046996.7,N
1572652515.1,286046997.9,N
1572652516.0,286046997.9,N
1572652535.8,286046997.7,N
1572652555.7,286046999.5,N
1572652575.5,286046999.2,N
1572652595.3,286046999.0,N
1572652615.2,286046999.1,N
1572652635.0,286046997.3,N
1572652635.9,286046997.3,N
1572652655.8,286046997.3,N
1572652675.6,286046997.8,N
1572652695.4,286046998.8,N
1572652715.3,286047001.2,N
1572652735.1,286046999.3,N
1572652755.8,286046998.9,N
1572652775.7,286046998.3,N
1572652795.5,286046999.4,N
